Location: Newark
(58.8333°N, 23.5833°E)
Time: 03:33:30
(UTC+00:00)

A-11 Canister half - Pass Details

Date: 19 November 2019
Orbit: 1515 x 1685 km, 47.2° (Epoch: 05 December)

Event Time Altitude Azimuth Distance (km) Brightness Sun altitude
Rises 18:06:11 0° 242° (WSW) 4,915 12.3 -31.4°
Reaches altitude 10° 18:09:33 10° 236° (SW) 3,939 11.6 -31.8°
Enters shadow 18:18:44 42° 171° (S) 2,260 9.6 -32.9°
Maximum altitude 18:18:47 42° 170° (S) 2,260 - -32.9°
Drops below altitude 10° 18:27:59 10° 105° (ESE) 3,930 - -34.1°
Sets 18:31:19 0° 99° (E) 4,904 - -34.5°
